Flag for U.S.A. Weather past 2 weeks in Tucson, Arizona, U.S.A.

Now
95 °F

Sunny.


Feels Like: 90 °F
Forecast: 67 / 100 °F
Wind: 10 mph from Northwest

Location: Davis-Monthan Air Force Base

Current Time: May 29, 2015 at 5:49:19 PM

Latest Report: May 29, 2015 at 4:58 PM


Visibility: 10 mi

Pressure: 29.75 "Hg

Humidity: 8%

Dew point: 26 °F

Location of TucsonLocation

Historic Weather in Tucson — Graph

°F

Tucson temperature yesterday

Maximum temperature yesterday: 95 °F (at 2:58 PM)
Minimum temperature yesterday: 62 °F (at 5:58 AM)
Average temperature yesterday: 81 °F

Past Weeks' High & Low Weather Summary

 TemperatureHumidityPressure
High97 °F (May 29, 3:58 PM)89% (May 16, 5:58 AM)30.01 "Hg (May 16, 5:58 AM)
Low52 °F (May 16, 2:58 AM)4% (May 27, 4:05 PM)29.67 "Hg (May 14, 4:58 PM)
Average72 °F25%29.84 "Hg
* Reported May 14 4:58 PM — May 29 4:58 PM, Tucson, Weather by CustomWeather, © 2015

Note: Actual official high and low records may vary slightly from our data, if they occured in-between our weather recording intervals... More about our weather records

Advertising

Tucson weather history for previous 24 hours

 ConditionsComfort  
Time TempWeatherWind HumidityBarometerVisibility
4:58 PM
Fri, May 29
95 °FSunny.10 mph8%29.75 "Hg10 mi
3:58 PM97 °FSunny.6 mph7%29.76 "Hg10 mi
2:58 PM95 °FSunny.2 mph9%29.78 "Hg10 mi
1:58 PM94 °FSunny.2 mph10%29.81 "Hg10 mi
12:58 PM94 °FSunny.8 mph10%29.83 "Hg10 mi
11:58 AM91 °FSunny.8 mph11%29.85 "Hg10 mi
10:58 AM89 °FSunny.5 mph14%29.86 "Hg10 mi
9:58 AM85 °FSunny.1 mph16%29.87 "Hg10 mi
8:58 AM82 °FSunny.1 mph18%29.88 "Hg10 mi
7:58 AM77 °FSunny.6 mph22%29.89 "Hg10 mi
6:58 AM72 °FSunny.8 mph23%29.88 "Hg10 mi
5:58 AM65 °FSunny.6 mph28%29.87 "Hg10 mi
4:58 AM65 °FClear.7 mph28%29.85 "Hg10 mi
3:58 AM65 °FClear.6 mph29%29.84 "Hg10 mi
2:58 AM67 °FClear.5 mph30%29.83 "Hg10 mi
1:58 AM69 °FClear.6 mph29%29.83 "Hg10 mi
12:58 AM71 °FClear.7 mph27%29.84 "Hg10 mi
11:58 PM
Thu, May 28
76 °FClear.6 mph21%29.84 "Hg10 mi
10:58 PM78 °FClear.8 mph16%29.82 "Hg10 mi
9:58 PM82 °FClear.8 mph13%29.80 "Hg10 mi
8:58 PM84 °FClear.8 mph13%29.79 "Hg10 mi
7:58 PM86 °FClear.7 mph11%29.77 "Hg10 mi
6:58 PM91 °FSunny.10 mph9%29.76 "Hg10 mi
5:58 PM93 °FSunny.12 mph8%29.75 "Hg10 mi
Weather by CustomWeather, © 2015

See weather overviewHow to use our weather pages